Hourly Weather Bartne

Today, 19 April, Monday

Time Temperature Precipitation Wind Pressure Humidity
00:00 +5°C° 0 mm 1 mps 719 mmHg 88%
01:00 +5°C° 0 mm 1 mps 719 mmHg 89%
02:00 +4°C° 0 mm 1 mps 718 mmHg 90%
03:00 +4°C° 0 mm 1 mps 718 mmHg 91%
04:00 +4°C° 0 mm 1 mps 718 mmHg 92%
05:00 +5°C° 0 mm 1 mps 718 mmHg 90%
06:00 +6°C° 0 mm 1 mps 718 mmHg 88%
07:00 +7°C° 0 mm 1 mps 718 mmHg 86%
08:00 +7°C° 0.2 mm 1 mps 718 mmHg 84%
09:00 +8°C° 0.2 mm 1 mps 718 mmHg 83%
10:00 +7°C° 0.2 mm 2 mps 718 mmHg 81%
11:00 +7°C° 0.2 mm 2 mps 718 mmHg 81%
12:00 +8°C° 0.2 mm 2 mps 718 mmHg 81%
13:00 +8°C° 0.2 mm 2 mps 718 mmHg 81%
14:00 +8°C° 0.2 mm 2 mps 718 mmHg 83%
15:00 +9°C° 0.2 mm 1 mps 717 mmHg 85%
16:00 +9°C° 0.2 mm 1 mps 717 mmHg 86%
17:00 +8°C° 0.4 mm 1 mps 717 mmHg 90%
18:00 +8°C° 0.4 mm 1 mps 717 mmHg 93%
19:00 +7°C° 0.4 mm 1 mps 717 mmHg 96%
20:00 +7°C° 0.2 mm 1 mps 717 mmHg 96%
21:00 +7°C° 0.2 mm 1 mps 717 mmHg 96%
22:00 +6°C° 0.2 mm 1 mps 717 mmHg 95%
23:00 +6°C° 0 mm 1 mps 716 mmHg 96%

Tomorrow, 20 April, Tuesday

Time Temperature Precipitation Wind Pressure Humidity
00:00 +6°C° 0 mm 1 mps 716 mmHg 96%
01:00 +5°C° 0 mm 1 mps 716 mmHg 96%
02:00 +5°C° 0 mm 1 mps 716 mmHg 97%
03:00 +5°C° 0 mm 1 mps 716 mmHg 97%
04:00 +5°C° 0 mm 1 mps 716 mmHg 97%
05:00 +5°C° 0.1 mm 1 mps 716 mmHg 96%
06:00 +5°C° 0.1 mm 2 mps 716 mmHg 95%
07:00 +5°C° 0.1 mm 2 mps 717 mmHg 94%
08:00 +6°C° 0.2 mm 2 mps 717 mmHg 91%
09:00 +7°C° 0.2 mm 1 mps 717 mmHg 88%
10:00 +8°C° 0.2 mm 1 mps 717 mmHg 85%
11:00 +9°C° 0.2 mm 1 mps 716 mmHg 79%
12:00 +10°C° 0.2 mm 1 mps 716 mmHg 73%
13:00 +11°C° 0.2 mm 1 mps 716 mmHg 66%
14:00 +10°C° 0.2 mm 2 mps 716 mmHg 67%
15:00 +10°C° 0.2 mm 2 mps 716 mmHg 67%
16:00 +10°C° 0.2 mm 2 mps 716 mmHg 68%
17:00 +8°C° 0.2 mm 2 mps 716 mmHg 75%
18:00 +8°C° 0.2 mm 1 mps 716 mmHg 81%
19:00 +6°C° 0.2 mm 1 mps 716 mmHg 88%
20:00 +6°C° 0.1 mm 1 mps 716 mmHg 89%
21:00 +5°C° 0.1 mm 1 mps 716 mmHg 90%
22:00 +5°C° 0.1 mm 1 mps 716 mmHg 91%
23:00 +5°C° 0.1 mm 1 mps 716 mmHg 91%

Day after tomorrow, 21 April, Wednesday

Time Temperature Precipitation Wind Pressure Humidity
00:00 +5°C° 0.1 mm 1 mps 716 mmHg 92%
01:00 +4°C° 0.1 mm 1 mps 716 mmHg 92%
02:00 +4°C° 0.1 mm 1 mps 716 mmHg 92%
03:00 +5°C° 0.1 mm 1 mps 716 mmHg 93%
04:00 +5°C° 0.1 mm 1 mps 716 mmHg 93%
05:00 +6°C° 0 mm 1 mps 716 mmHg 90%
06:00 +7°C° 0 mm 1 mps 716 mmHg 87%
07:00 +8°C° 0 mm 1 mps 717 mmHg 84%
08:00 +8°C° 0.2 mm 2 mps 717 mmHg 77%
09:00 +9°C° 0.2 mm 2 mps 717 mmHg 71%
10:00 +10°C° 0.2 mm 3 mps 717 mmHg 65%
11:00 +11°C° 0.4 mm 3 mps 717 mmHg 65%
12:00 +11°C° 0.4 mm 3 mps 716 mmHg 65%
13:00 +11°C° 0.4 mm 3 mps 716 mmHg 65%
14:00 +11°C° 0.5 mm 3 mps 716 mmHg 66%
15:00 +12°C° 0.5 mm 2 mps 716 mmHg 67%
16:00 +12°C° 0.5 mm 2 mps 716 mmHg 69%
17:00 +10°C° 0.4 mm 2 mps 716 mmHg 75%
18:00 +8°C° 0.4 mm 2 mps 716 mmHg 81%
19:00 +6°C° 0.4 mm 2 mps 716 mmHg 87%
20:00 +6°C° 0.1 mm 2 mps 716 mmHg 88%
21:00 +6°C° 0.1 mm 2 mps 716 mmHg 89%
22:00 +5°C° 0.1 mm 2 mps 716 mmHg 90%
23:00 +5°C° 0 mm 2 mps 717 mmHg 91%

22 April, Thursday

Time Temperature Precipitation Wind Pressure Humidity
00:00 +5°C° 0 mm 2 mps 717 mmHg 93%
01:00 +5°C° 0 mm 2 mps 717 mmHg 94%
02:00 +5°C° 0.3 mm 2 mps 717 mmHg 94%
03:00 +5°C° 0.3 mm 2 mps 717 mmHg 95%
04:00 +5°C° 0.3 mm 2 mps 717 mmHg 96%
05:00 +7°C° 0.1 mm 1 mps 717 mmHg 94%
06:00 +7°C° 0.1 mm 1 mps 717 mmHg 92%
07:00 +7°C° 0.1 mm 1 mps 718 mmHg 90%
08:00 +8°C° 0.1 mm 1 mps 718 mmHg 86%
09:00 +9°C° 0.1 mm 1 mps 718 mmHg 81%
10:00 +10°C° 0.1 mm 1 mps 718 mmHg 77%
11:00 +9°C° 0.6 mm 2 mps 718 mmHg 78%
12:00 +9°C° 0.6 mm 2 mps 717 mmHg 78%
13:00 +10°C° 0.6 mm 2 mps 717 mmHg 79%
14:00 +8°C° 1.4 mm 2 mps 717 mmHg 83%
15:00 +7°C° 1.4 mm 3 mps 717 mmHg 88%
16:00 +5°C° 1.4 mm 3 mps 717 mmHg 93%
17:00 +5°C° 0.3 mm 3 mps 718 mmHg 94%
18:00 +5°C° 0.3 mm 2 mps 718 mmHg 94%
19:00 +5°C° 0.3 mm 2 mps 718 mmHg 94%
20:00 +4°C° 0 mm 2 mps 718 mmHg 93%
21:00 +5°C° 0 mm 1 mps 718 mmHg 92%
22:00 +4°C° 0 mm 1 mps 718 mmHg 92%
23:00 +4°C° 0 mm 1 mps 718 mmHg 90%

23 April, Friday

Time Temperature Precipitation Wind Pressure Humidity
00:00 +3°C° 0 mm 2 mps 718 mmHg 89%
01:00 +2°C° 0 mm 2 mps 718 mmHg 87%
02:00 +1°C° 0 mm 2 mps 719 mmHg 88%
03:00 +1°C° 0 mm 2 mps 719 mmHg 89%
04:00 -1°C° 0 mm 2 mps 719 mmHg 89%
05:00 +1°C° 0 mm 2 mps 719 mmHg 85%
06:00 +1°C° 0 mm 3 mps 720 mmHg 81%
07:00 +2°C° 0 mm 3 mps 720 mmHg 76%
08:00 +3°C° 0 mm 4 mps 720 mmHg 70%
09:00 +3°C° 0 mm 5 mps 721 mmHg 64%
10:00 +5°C° 0 mm 5 mps 721 mmHg 58%
11:00 +5°C° 0 mm 5 mps 721 mmHg 56%
12:00 +6°C° 0 mm 5 mps 721 mmHg 54%
13:00 +6°C° 0 mm 5 mps 721 mmHg 53%
14:00 +6°C° 0.1 mm 5 mps 721 mmHg 53%
15:00 +6°C° 0.1 mm 5 mps 721 mmHg 54%
16:00 +6°C° 0.1 mm 5 mps 721 mmHg 55%
17:00 +5°C° 0 mm 4 mps 722 mmHg 63%
18:00 +4°C° 0 mm 2 mps 722 mmHg 71%
19:00 +3°C° 0 mm 1 mps 722 mmHg 80%
20:00 +3°C° 0 mm 1 mps 722 mmHg 81%
21:00 +2°C° 0 mm 1 mps 722 mmHg 83%
22:00 +2°C° 0 mm 1 mps 723 mmHg 85%
23:00 +1°C° 0 mm 1 mps 722 mmHg 85%

24 April, Saturday

Time Temperature Precipitation Wind Pressure Humidity
00:00 +1°C° 0 mm 1 mps 722 mmHg 85%
01:00 +1°C° 0 mm 1 mps 722 mmHg 85%
02:00 +1°C° 0 mm 1 mps 722 mmHg 84%
03:00 +1°C° 0 mm 1 mps 722 mmHg 84%
04:00 -2°C° 0 mm 2 mps 722 mmHg 83%
05:00 +1°C° 0 mm 2 mps 722 mmHg 76%
06:00 +3°C° 0 mm 2 mps 722 mmHg 69%
07:00 +5°C° 0 mm 2 mps 722 mmHg 62%
08:00 +7°C° 0 mm 3 mps 722 mmHg 57%
09:00 +8°C° 0 mm 3 mps 721 mmHg 51%
10:00 +10°C° 0 mm 4 mps 721 mmHg 46%
11:00 +11°C° 0 mm 4 mps 721 mmHg 45%
12:00 +11°C° 0 mm 4 mps 721 mmHg 44%
13:00 +12°C° 0 mm 4 mps 720 mmHg 44%
14:00 +12°C° 0 mm 4 mps 720 mmHg 48%
15:00 +11°C° 0 mm 3 mps 720 mmHg 51%
16:00 +11°C° 0 mm 3 mps 720 mmHg 55%
17:00 +9°C° 0 mm 2 mps 720 mmHg 65%
18:00 +7°C° 0 mm 2 mps 720 mmHg 75%
19:00 +6°C° 0 mm 1 mps 720 mmHg 85%
20:00 +6°C° 0 mm 1 mps 720 mmHg 84%
21:00 +4°C° 0 mm 2 mps 721 mmHg 84%
22:00 +3°C° 0 mm 3 mps 721 mmHg 84%
23:00 +3°C° 0.2 mm 3 mps 721 mmHg 87%
Show more